Time,TemperatureF,DewpointF,PressureIn,WindDirection,WindDirectionDegrees,WindSpeedMPH,WindSpeedGustMPH,Humidity,HourlyPrecipIn,Conditions,Clouds,dailyrainin,SoftwareType,DateUTC
2013-05-29 00:01:00,71.6,61.3,29.53,WSW,243,4.6,4.6,70,0.00,CLR,,0.00,WeatherDisplay:10.37,2013-05-29 04:01:00,
2013-05-29 00:06:00,71.6,61.7,29.53,WSW,237,2.3,2.3,71,0.00,CLR,,0.00,WeatherDisplay:10.37,2013-05-29 04:06:00,
2013-05-29 00:11:00,71.3,61.4,29.53,SW,223,6.9,6.9,71,0.00,CLR,,0.00,WeatherDisplay:10.37,2013-05-29 04:11:00,
2013-05-29 00:16:00,71.3,61.4,29.53,SW,220,3.0,3.0,71,0.00,CLR,,0.00,WeatherDisplay:10.37,2013-05-29 04:16:00,
2013-05-29 00:21:00,71.1,61.2,29.53,SW,232,3.5,3.5,71,0.00,CLR,,0.00,WeatherDisplay:10.37,2013-05-29 04:21:00,
2013-05-29 00:26:00,70.9,61.4,29.53,SW,217,1.1,1.1,72,0.00,CLR,,0.00,WeatherDisplay:10.37,2013-05-29 04:26:00,
2013-05-29 00:31:00,70.8,61.3,29.53,WSW,239,0.0,0.0,72,0.00,CLR,,0.00,WeatherDisplay:10.37,2013-05-29 04:31:00,
2013-05-29 00:36:00,70.6,61.1,29.53,West,264,7.0,7.0,72,0.00,CLR,,0.00,WeatherDisplay:10.37,2013-05-29 04:36:00,
2013-05-29 00:41:00,70.6,61.1,29.53,SSW,209,0.0,0.4,72,0.00,CLR,,0.00,WeatherDisplay:10.37,2013-05-29 04:41:00,
2013-05-29 00:46:00,70.4,60.9,29.53,SW,229,3.5,3.5,72,0.00,CLR,,0.00,WeatherDisplay:10.37,2013-05-29 04:46:00,
2013-05-29 00:51:00,70.4,60.9,29.53,SW,236,3.5,3.5,72,0.00,CLR,,0.00,WeatherDisplay:10.37,2013-05-29 04:51:00,
2013-05-29 00:56:00,70.4,60.9,29.53,SW,227,1.1,1.1,72,0.00,CLR,,0.00,WeatherDisplay:10.37,2013-05-29 04:56:00,
2013-05-29 01:01:00,70.3,61.2,29.53,WSW,251,0.0,0.0,73,0.00,CLR,,0.00,WeatherDisplay:10.37,2013-05-29 05:01:00,
2013-05-29 01:06:00,69.9,60.8,29.53,WSW,241,3.5,3.5,73,0.00,CLR,,0.00,WeatherDisplay:10.37,2013-05-29 05:06:00,
2013-05-29 01:11:00,69.8,61.1,29.53,WSW,240,2.3,2.3,74,0.00,CLR,,0.00,WeatherDisplay:10.37,2013-05-29 05:11:00,
2013-05-29 01:16:00,69.8,60.8,29.53,SSW,193,4.6,4.6,73,0.00,CLR,,0.00,WeatherDisplay:10.37,2013-05-29 05:16:00,
2013-05-29 01:21:00,69.6,60.9,29.53,SW,234,3.5,3.5,74,0.00,CLR,,0.00,WeatherDisplay:10.37,2013-05-29 05:21:00,
2013-05-29 01:26:00,69.4,60.8,29.53,WSW,241,4.6,4.6,74,0.00,CLR,,0.00,WeatherDisplay:10.37,2013-05-29 05:26:00,
2013-05-29 01:31:00,69.4,60.8,29.53,WSW,257,2.3,2.3,74,0.00,CLR,,0.00,WeatherDisplay:10.37,2013-05-29 05:31:00,
2013-05-29 01:36:00,69.3,60.7,29.53,SSW,210,6.9,6.9,74,0.00,CLR,,0.00,WeatherDisplay:10.37,2013-05-29 05:36:00,
2013-05-29 01:41:00,69.1,60.8,29.53,WSW,250,3.5,3.5,75,0.00,CLR,,0.00,WeatherDisplay:10.37,2013-05-29 05:41:00,
2013-05-29 01:46:00,69.1,60.8,29.53,SW,233,5.8,5.8,75,0.00,CLR,,0.00,WeatherDisplay:10.37,2013-05-29 05:46:00,
2013-05-29 01:51:00,68.9,60.6,29.53,SSW,202,5.8,5.8,75,0.00,CLR,,0.00,WeatherDisplay:10.37,2013-05-29 05:51:00,
2013-05-29 01:56:00,68.9,60.6,29.53,SW,220,6.9,6.9,75,0.00,CLR,,0.00,WeatherDisplay:10.37,2013-05-29 05:56:00,
2013-05-29 02:01:00,68.8,60.9,29.53,SSW,203,3.5,0.0,76,0.00,CLR,,0.00,WeatherDisplay:10.37,2013-05-29 06:01:00,
2013-05-29 02:06:00,68.6,60.7,29.53,SSW,209,5.8,0.0,76,0.00,CLR,,0.00,WeatherDisplay:10.37,2013-05-29 06:06:00,
2013-05-29 02:11:00,68.4,60.5,29.53,SW,232,5.8,5.8,76,0.00,CLR,,0.00,WeatherDisplay:10.37,2013-05-29 06:11:00,
2013-05-29 02:16:00,68.3,60.8,29.53,SSW,208,3.5,3.5,77,0.00,CLR,,0.00,WeatherDisplay:10.37,2013-05-29 06:16:00,
2013-05-29 02:21:00,68.3,60.8,29.53,SW,220,1.1,1.9,77,0.00,CLR,,0.00,WeatherDisplay:10.37,2013-05-29 06:21:00,
2013-05-29 02:26:00,68.1,60.6,29.52,SW,227,5.8,5.8,77,0.00,CLR,,0.00,WeatherDisplay:10.37,2013-05-29 06:26:00,
2013-05-29 02:31:00,68.1,60.6,29.52,WSW,240,5.8,5.8,77,0.00,CLR,,0.00,WeatherDisplay:10.37,2013-05-29 06:31:00,
2013-05-29 02:36:00,68.1,60.6,29.52,West,272,5.8,5.8,77,0.00,CLR,,0.00,WeatherDisplay:10.37,2013-05-29 06:36:00,
2013-05-29 02:41:00,68.1,61.0,29.52,WSW,247,6.9,6.9,78,0.00,CLR,,0.00,WeatherDisplay:10.37,2013-05-29 06:41:00,
2013-05-29 02:46:00,67.9,60.8,29.52,WSW,247,5.8,5.8,78,0.00,CLR,,0.00,WeatherDisplay:10.37,2013-05-29 06:46:00,
2013-05-29 02:51:00,67.9,60.8,29.52,WSW,240,10.4,10.4,78,0.00,CLR,,0.00,WeatherDisplay:10.37,2013-05-29 06:51:00,
2013-05-29 02:56:00,67.8,60.7,29.52,SW,222,5.8,5.8,78,0.00,CLR,,0.00,WeatherDisplay:10.37,2013-05-29 06:56:00,
2013-05-29 03:01:00,67.6,60.9,29.52,WSW,237,4.6,4.6,79,0.00,CLR,,0.00,WeatherDisplay:10.37,2013-05-29 07:01:00,
2013-05-29 03:06:00,67.4,60.7,29.52,WSW,243,8.1,8.1,79,0.00,CLR,,0.00,WeatherDisplay:10.37,2013-05-29 07:06:00,
2013-05-29 03:11:00,67.4,61.0,29.53,SW,232,3.5,3.5,80,0.00,CLR,,0.00,WeatherDisplay:10.37,2013-05-29 07:11:00,
2013-05-29 03:16:00,67.3,60.9,29.53,SW,219,5.8,5.8,80,0.00,CLR,,0.00,WeatherDisplay:10.37,2013-05-29 07:16:00,
2013-05-29 03:21:00,67.1,60.7,29.53,SW,230,4.6,4.6,80,0.00,CLR,,0.00,WeatherDisplay:10.37,2013-05-29 07:21:00,
2013-05-29 03:26:00,67.1,60.7,29.53,SW,236,2.3,0.0,80,0.00,CLR,,0.00,WeatherDisplay:10.37,2013-05-29 07:26:00,
2013-05-29 03:31:00,66.9,60.9,29.53,SW,215,4.6,4.6,81,0.00,CLR,,0.00,WeatherDisplay:10.37,2013-05-29 07:31:00,
2013-05-29 03:36:00,66.9,60.9,29.53,SW,234,0.0,0.0,81,0.00,CLR,,0.00,WeatherDisplay:10.37,2013-05-29 07:36:00,
2013-05-29 03:41:00,66.8,61.1,29.53,WSW,240,5.0,5.0,82,0.00,CLR,,0.00,WeatherDisplay:10.37,2013-05-29 07:41:00,
2013-05-29 03:46:00,66.8,61.1,29.53,SW,234,5.8,5.8,82,0.00,CLR,,0.00,WeatherDisplay:10.37,2013-05-29 07:46:00,
2013-05-29 03:51:00,66.6,60.9,29.53,SSW,210,3.5,3.5,82,0.00,CLR,,0.00,WeatherDisplay:10.37,2013-05-29 07:51:00,
2013-05-29 03:56:00,66.4,61.1,29.53,WSW,237,2.3,2.3,83,0.00,CLR,,0.00,WeatherDisplay:10.37,2013-05-29 07:56:00,
2013-05-29 04:01:00,66.3,61.0,29.53,SW,222,3.5,3.5,83,0.00,CLR,,0.00,WeatherDisplay:10.37,2013-05-29 08:01:00,
2013-05-29 04:06:00,66.1,61.1,29.53,SW,233,5.8,5.8,84,0.00,CLR,,0.00,WeatherDisplay:10.37,2013-05-29 08:06:00,
2013-05-29 04:11:00,66.1,61.1,29.54,SW,222,0.0,0.9,84,0.00,CLR,,0.00,WeatherDisplay:10.37,2013-05-29 08:11:00,
2013-05-29 04:16:00,66.1,61.1,29.54,WSW,243,4.6,4.6,84,0.00,CLR,,0.00,WeatherDisplay:10.37,2013-05-29 08:16:00,
2013-05-29 04:21:00,66.1,61.1,29.54,WSW,247,5.8,5.8,84,0.00,CLR,,0.00,WeatherDisplay:10.37,2013-05-29 08:21:00,
2013-05-29 04:26:00,66.0,61.0,29.54,SW,230,6.9,6.9,84,0.00,CLR,,0.00,WeatherDisplay:10.37,2013-05-29 08:26:00,
2013-05-29 04:31:00,66.0,61.4,29.54,SW,232,6.9,6.9,85,0.00,CLR,,0.00,WeatherDisplay:10.37,2013-05-29 08:31:00,
2013-05-29 04:36:00,66.0,61.4,29.54,SW,224,2.3,2.3,85,0.00,CLR,,0.00,WeatherDisplay:10.37,2013-05-29 08:36:00,
2013-05-29 04:41:00,65.8,61.2,29.54,SW,224,6.9,6.9,85,0.00,CLR,,0.00,WeatherDisplay:10.37,2013-05-29 08:41:00,
2013-05-29 04:46:00,65.8,61.5,29.54,WSW,247,2.3,0.0,86,0.00,CLR,,0.00,WeatherDisplay:10.37,2013-05-29 08:46:00,
2013-05-29 04:51:00,65.8,61.5,29.54,WSW,239,6.9,6.9,86,0.00,CLR,,0.00,WeatherDisplay:10.37,2013-05-29 08:51:00,
2013-05-29 04:56:00,65.8,61.5,29.55,SW,216,4.6,4.6,86,0.00,CLR,,0.00,WeatherDisplay:10.37,2013-05-29 08:56:00,
2013-05-29 05:01:00,65.6,61.3,29.55,SSW,208,0.0,1.8,86,0.00,CLR,,0.00,WeatherDisplay:10.37,2013-05-29 09:01:00,
2013-05-29 05:06:00,65.6,61.3,29.55,WSW,239,3.5,3.5,86,0.00,CLR,,0.00,WeatherDisplay:10.37,2013-05-29 09:06:00,
2013-05-29 05:11:00,65.5,61.5,29.55,WSW,239,1.1,1.4,87,0.00,CLR,,0.00,WeatherDisplay:10.37,2013-05-29 09:11:00,
2013-05-29 05:16:00,65.3,61.3,29.55,SW,232,3.5,3.5,87,0.00,CLR,,0.00,WeatherDisplay:10.37,2013-05-29 09:16:00,
2013-05-29 05:21:00,65.3,61.3,29.55,SW,226,3.5,3.5,87,0.00,CLR,,0.00,WeatherDisplay:10.37,2013-05-29 09:21:00,
2013-05-29 05:26:00,65.2,61.6,29.55,WSW,237,3.5,3.5,88,0.00,CLR,,0.00,WeatherDisplay:10.37,2013-05-29 09:26:00,
2013-05-29 05:31:00,65.2,61.6,29.55,SW,229,5.8,5.8,88,0.00,CLR,,0.00,WeatherDisplay:10.37,2013-05-29 09:31:00,
2013-05-29 05:36:00,65.2,61.6,29.55,WSW,257,4.6,0.0,88,0.00,CLR,,0.00,WeatherDisplay:10.37,2013-05-29 09:36:00,
2013-05-29 05:41:00,65.2,61.6,29.55,WSW,246,1.1,1.1,88,0.00,CLR,,0.00,WeatherDisplay:10.37,2013-05-29 09:41:00,
2013-05-29 05:46:00,65.0,61.7,29.55,WSW,241,8.1,8.1,89,0.00,CLR,,0.00,WeatherDisplay:10.37,2013-05-29 09:46:00,
2013-05-29 05:51:00,65.0,61.7,29.55,WSW,243,2.3,2.3,89,0.00,CLR,,0.00,WeatherDisplay:10.37,2013-05-29 09:51:00,
2013-05-29 05:56:00,64.8,61.5,29.55,West,263,3.5,3.5,89,0.00,CLR,,0.00,WeatherDisplay:10.37,2013-05-29 09:56:00,
2013-05-29 06:01:00,64.8,61.5,29.55,WSW,257,4.6,5.2,89,0.00,CLR,,0.00,WeatherDisplay:10.37,2013-05-29 10:01:00,
2013-05-29 06:06:00,64.8,61.5,29.55,SW,222,4.6,4.6,89,0.00,CLR,,0.00,WeatherDisplay:10.37,2013-05-29 10:06:00,
2013-05-29 06:11:00,64.7,61.7,29.56,WSW,239,3.5,3.5,90,0.00,CLR,,0.00,WeatherDisplay:10.37,2013-05-29 10:11:00,
2013-05-29 06:16:00,64.7,61.7,29.56,WSW,239,6.9,6.9,90,0.00,CLR,,0.00,WeatherDisplay:10.37,2013-05-29 10:16:00,
2013-05-29 06:21:00,64.7,61.7,29.56,SW,223,5.0,5.0,90,0.00,CLR,,0.00,WeatherDisplay:10.37,2013-05-29 10:21:00,
2013-05-29 06:26:00,64.7,61.7,29.56,WSW,253,6.9,6.9,90,0.00,CLR,,0.00,WeatherDisplay:10.37,2013-05-29 10:26:00,
2013-05-29 06:31:00,64.7,61.7,29.56,SW,220,3.5,3.5,90,0.00,CLR,,0.00,WeatherDisplay:10.37,2013-05-29 10:31:00,
2013-05-29 06:36:00,64.7,62.0,29.56,WSW,244,4.6,4.6,91,0.00,CLR,,0.00,WeatherDisplay:10.37,2013-05-29 10:36:00,
2013-05-29 06:41:00,64.7,62.0,29.56,SW,230,1.1,1.6,91,0.00,CLR,,0.00,WeatherDisplay:10.37,2013-05-29 10:41:00,
2013-05-29 06:46:00,64.7,62.0,29.56,WSW,239,5.8,5.8,91,0.00,CLR,,0.00,WeatherDisplay:10.37,2013-05-29 10:46:00,
2013-05-29 06:51:00,65.0,62.3,29.56,SW,230,6.9,6.9,91,0.00,CLR,,0.00,WeatherDisplay:10.37,2013-05-29 10:51:00,
2013-05-29 06:56:00,65.0,62.0,29.56,WSW,239,8.1,8.1,90,0.00,CLR,,0.00,WeatherDisplay:10.37,2013-05-29 10:56:00,
2013-05-29 07:01:00,65.2,62.2,29.56,WSW,258,8.1,8.1,90,0.00,CLR,,0.00,WeatherDisplay:10.37,2013-05-29 11:01:00,
2013-05-29 07:06:00,65.3,62.3,29.56,WSW,246,7.0,7.0,90,0.00,CLR,,0.00,WeatherDisplay:10.37,2013-05-29 11:06:00,
2013-05-29 07:11:00,65.5,62.2,29.57,WSW,246,8.1,8.1,89,0.00,CLR,,0.00,WeatherDisplay:10.37,2013-05-29 11:11:00,
2013-05-29 07:16:00,65.6,62.3,29.57,WSW,244,6.9,6.9,89,0.00,CLR,,0.00,WeatherDisplay:10.37,2013-05-29 11:16:00,
2013-05-29 07:21:00,65.8,62.5,29.57,SW,229,6.9,6.9,89,0.00,CLR,,0.00,WeatherDisplay:10.37,2013-05-29 11:21:00,
2013-05-29 07:27:00,66.0,62.7,29.57,SW,219,5.8,5.8,89,0.00,CLR,,0.00,WeatherDisplay:10.37,2013-05-29 11:27:00,
2013-05-29 07:32:00,66.1,62.4,29.57,WSW,258,6.9,6.9,88,0.00,CLR,,0.00,WeatherDisplay:10.37,2013-05-29 11:32:00,
2013-05-29 07:37:00,66.4,62.7,29.57,WSW,244,8.1,8.1,88,0.00,CLR,,0.00,WeatherDisplay:10.37,2013-05-29 11:37:00,
2013-05-29 07:42:00,66.6,62.6,29.57,SSW,212,5.0,6.5,87,0.00,CLR,,0.00,WeatherDisplay:10.37,2013-05-29 11:42:00,
2013-05-29 07:47:00,66.8,62.8,29.57,SW,233,12.7,12.7,87,0.00,CLR,,0.00,WeatherDisplay:10.37,2013-05-29 11:47:00,
2013-05-29 07:52:00,67.1,62.8,29.57,SW,236,8.1,8.1,86,0.00,CLR,,0.00,WeatherDisplay:10.37,2013-05-29 11:52:00,
2013-05-29 07:57:00,67.3,63.0,29.57,WSW,239,8.1,8.1,86,0.00,CLR,,0.00,WeatherDisplay:10.37,2013-05-29 11:57:00,
2013-05-29 08:02:00,67.6,62.9,29.57,SW,229,8.1,8.1,85,0.00,CLR,,0.00,WeatherDisplay:10.37,2013-05-29 12:02:00,
2013-05-29 08:07:00,67.8,62.8,29.57,West,274,6.0,7.4,84,0.00,CLR,,0.00,WeatherDisplay:10.37,2013-05-29 12:07:00,
2013-05-29 08:12:00,68.1,62.7,29.57,SW,233,11.5,11.5,83,0.00,CLR,,0.00,WeatherDisplay:10.37,2013-05-29 12:12:00,
2013-05-29 08:17:00,68.4,62.7,29.57,WSW,240,10.4,10.4,82,0.00,CLR,,0.00,WeatherDisplay:10.37,2013-05-29 12:17:00,
2013-05-29 08:22:00,68.8,62.7,29.57,WSW,246,8.1,8.1,81,0.00,CLR,,0.00,WeatherDisplay:10.37,2013-05-29 12:22:00,
2013-05-29 08:27:00,69.1,62.7,29.57,West,281,6.9,6.9,80,0.00,CLR,,0.00,WeatherDisplay:10.37,2013-05-29 12:27:00,
2013-05-29 08:32:00,69.3,62.1,29.57,WSW,253,11.5,11.5,78,0.00,CLR,,0.00,WeatherDisplay:10.37,2013-05-29 12:32:00,
2013-05-29 08:37:00,69.6,62.4,29.57,WSW,244,9.2,9.2,78,0.00,CLR,,0.00,WeatherDisplay:10.37,2013-05-29 12:37:00,
2013-05-29 08:42:00,69.9,62.7,29.58,SSW,205,8.1,8.1,78,0.00,CLR,,0.00,WeatherDisplay:10.37,2013-05-29 12:42:00,
2013-05-29 08:47:00,70.1,62.6,29.58,WNW,295,8.1,8.1,77,0.00,CLR,,0.00,WeatherDisplay:10.37,2013-05-29 12:47:00,
2013-05-29 08:52:00,70.4,62.8,29.58,SW,236,5.8,5.8,77,0.00,CLR,,0.00,WeatherDisplay:10.37,2013-05-29 12:52:00,
2013-05-29 08:57:00,70.8,62.9,29.58,WSW,246,11.5,11.5,76,0.00,CLR,,0.00,WeatherDisplay:10.37,2013-05-29 12:57:00,
2013-05-29 09:02:00,71.1,62.8,29.58,WSW,240,6.9,6.9,75,0.00,CLR,,0.00,WeatherDisplay:10.37,2013-05-29 13:02:00,
2013-05-29 09:07:00,71.3,63.0,29.58,SW,232,6.9,6.9,75,0.00,CLR,,0.00,WeatherDisplay:10.37,2013-05-29 13:07:00,
2013-05-29 09:12:00,71.5,62.4,29.58,WSW,258,12.7,12.7,73,0.00,CLR,,0.00,WeatherDisplay:10.37,2013-05-29 13:12:00,
2013-05-29 09:17:00,71.6,62.5,29.58,WSW,240,12.7,12.7,73,0.00,CLR,,0.00,WeatherDisplay:10.37,2013-05-29 13:17:00,
2013-05-29 09:22:00,72.0,62.9,29.58,West,268,5.8,5.8,73,0.00,CLR,,0.00,WeatherDisplay:10.37,2013-05-29 13:22:00,
2013-05-29 09:27:00,72.5,63.0,29.58,WSW,241,10.4,10.4,72,0.00,CLR,,0.00,WeatherDisplay:10.37,2013-05-29 13:27:00,
2013-05-29 09:32:00,72.8,62.0,29.58,NNW,343,11.5,11.5,69,0.00,CLR,,0.00,WeatherDisplay:10.37,2013-05-29 13:32:00,
2013-05-29 09:37:00,73.0,62.6,29.58,SW,232,10.4,10.4,70,0.00,CLR,,0.00,WeatherDisplay:10.37,2013-05-29 13:37:00,
2013-05-29 09:42:00,73.2,62.8,29.58,SW,219,10.4,10.4,70,0.00,CLR,,0.00,WeatherDisplay:10.37,2013-05-29 13:42:00,
2013-05-29 09:47:00,73.0,61.8,29.58,SW,226,11.5,11.5,68,0.00,CLR,,0.00,WeatherDisplay:10.37,2013-05-29 13:47:00,
2013-05-29 09:52:00,73.5,62.3,29.58,WNW,284,5.8,5.8,68,0.00,CLR,,0.00,WeatherDisplay:10.37,2013-05-29 13:52:00,
2013-05-29 09:57:00,73.7,62.1,29.58,West,268,11.5,11.5,67,0.00,CLR,,0.00,WeatherDisplay:10.37,2013-05-29 13:57:00,
2013-05-29 10:02:00,74.0,62.8,29.58,SSW,202,9.0,9.0,68,0.00,CLR,,0.00,WeatherDisplay:10.37,2013-05-29 14:02:00,
2013-05-29 10:07:00,74.2,62.1,29.58,WSW,248,5.8,5.8,66,0.00,CLR,,0.00,WeatherDisplay:10.37,2013-05-29 14:07:00,
2013-05-29 10:12:00,74.6,62.1,29.58,WSW,251,11.5,11.5,65,0.00,CLR,,0.00,WeatherDisplay:10.37,2013-05-29 14:12:00,
2013-05-29 10:17:00,74.7,63.0,29.58,SW,224,4.6,4.6,67,0.00,CLR,,0.00,WeatherDisplay:10.37,2013-05-29 14:17:00,
2013-05-29 10:22:00,75.1,62.1,29.58,WSW,240,6.9,6.9,64,0.00,CLR,,0.00,WeatherDisplay:10.37,2013-05-29 14:22:00,
2013-05-29 10:27:00,75.1,62.1,29.58,SW,232,8.1,8.1,64,0.00,CLR,,0.00,WeatherDisplay:10.37,2013-05-29 14:27:00,
2013-05-29 10:32:00,74.7,61.7,29.58,SW,222,11.5,11.5,64,0.00,CLR,,0.00,WeatherDisplay:10.37,2013-05-29 14:32:00,
2013-05-29 10:37:00,75.1,61.6,29.58,WSW,250,6.9,6.9,63,0.00,CLR,,0.00,WeatherDisplay:10.37,2013-05-29 14:37:00,
2013-05-29 10:42:00,75.4,61.5,29.58,WSW,254,12.7,12.7,62,0.00,CLR,,0.00,WeatherDisplay:10.37,2013-05-29 14:42:00,
2013-05-29 10:47:00,75.6,60.7,29.58,West,261,11.5,11.5,60,0.00,CLR,,0.00,WeatherDisplay:10.37,2013-05-29 14:47:00,
2013-05-29 10:52:00,75.8,60.9,29.58,West,260,6.9,6.9,60,0.00,CLR,,0.00,WeatherDisplay:10.37,2013-05-29 14:52:00,
2013-05-29 10:57:00,76.3,61.4,29.59,SW,227,11.0,11.0,60,0.00,CLR,,0.00,WeatherDisplay:10.37,2013-05-29 14:57:00,
2013-05-29 11:02:00,76.1,60.2,29.59,WSW,257,11.5,11.5,58,0.00,CLR,,0.00,WeatherDisplay:10.37,2013-05-29 15:02:00,
2013-05-29 11:07:00,76.5,61.1,29.59,West,265,6.9,6.9,59,0.00,CLR,,0.00,WeatherDisplay:10.37,2013-05-29 15:07:00,
2013-05-29 11:12:00,77.0,61.1,29.59,West,267,5.8,5.8,58,0.00,CLR,,0.00,WeatherDisplay:10.37,2013-05-29 15:12:00,
2013-05-29 11:17:00,77.2,60.8,29.59,WSW,239,8.1,8.1,57,0.00,CLR,,0.00,WeatherDisplay:10.37,2013-05-29 15:17:00,
2013-05-29 11:22:00,77.6,61.2,29.59,WSW,248,5.8,5.8,57,0.00,CLR,,0.00,WeatherDisplay:10.37,2013-05-29 15:22:00,
2013-05-29 11:27:00,77.6,61.2,29.59,SW,236,6.9,6.9,57,0.00,CLR,,0.00,WeatherDisplay:10.37,2013-05-29 15:27:00,
2013-05-29 11:32:00,78.1,61.1,29.59,West,264,10.4,10.4,56,0.00,CLR,,0.00,WeatherDisplay:10.37,2013-05-29 15:32:00,
2013-05-29 11:37:00,78.3,61.3,29.59,West,278,10.4,10.4,56,0.00,CLR,,0.00,WeatherDisplay:10.37,2013-05-29 15:37:00,
2013-05-29 11:42:00,78.5,62.0,29.58,SE,137,6.9,6.9,57,0.00,CLR,,0.00,WeatherDisplay:10.37,2013-05-29 15:42:00,
2013-05-29 11:47:00,78.8,60.7,29.58,WSW,256,5.8,5.8,54,0.00,CLR,,0.00,WeatherDisplay:10.37,2013-05-29 15:47:00,
2013-05-29 11:52:00,78.6,61.6,29.58,WSW,257,10.4,10.4,56,0.00,CLR,,0.00,WeatherDisplay:10.37,2013-05-29 15:52:00,
2013-05-29 11:57:00,78.8,62.8,29.58,WSW,246,8.1,8.1,58,0.00,CLR,,0.00,WeatherDisplay:10.37,2013-05-29 15:57:00,
2013-05-29 12:02:00,79.2,62.7,29.58,WSW,251,5.8,5.8,57,0.00,CLR,,0.00,WeatherDisplay:10.37,2013-05-29 16:02:00,
2013-05-29 12:07:00,79.4,62.3,29.58,West,278,6.9,6.9,56,0.00,CLR,,0.00,WeatherDisplay:10.37,2013-05-29 16:07:00,
2013-05-29 12:12:00,79.4,62.8,29.58,SSW,209,6.9,6.9,57,0.00,CLR,,0.00,WeatherDisplay:10.37,2013-05-29 16:12:00,
2013-05-29 12:17:00,79.6,63.0,29.58,South,182,2.3,2.3,57,0.00,CLR,,0.00,WeatherDisplay:10.37,2013-05-29 16:17:00,
2013-05-29 12:22:00,80.3,63.2,29.58,West,281,3.5,3.5,56,0.00,CLR,,0.00,WeatherDisplay:10.37,2013-05-29 16:22:00,
2013-05-29 12:27:00,80.1,62.5,29.58,WSW,256,10.4,10.4,55,0.00,CLR,,0.00,WeatherDisplay:10.37,2013-05-29 16:27:00,
2013-05-29 12:32:00,80.3,62.7,29.58,SSW,213,2.3,2.3,55,0.00,CLR,,0.00,WeatherDisplay:10.37,2013-05-29 16:32:00,
2013-05-29 12:37:00,79.9,62.3,29.58,West,275,11.5,11.5,55,0.00,CLR,,0.00,WeatherDisplay:10.37,2013-05-29 16:37:00,
2013-05-29 12:42:00,79.9,62.3,29.58,West,271,5.8,5.8,55,0.00,CLR,,0.00,WeatherDisplay:10.37,2013-05-29 16:42:00,
2013-05-29 12:47:00,80.3,63.7,29.58,WSW,246,0.0,0.0,57,0.00,CLR,,0.00,WeatherDisplay:10.37,2013-05-29 16:47:00,
2013-05-29 12:52:00,80.7,62.5,29.58,West,264,9.2,9.2,54,0.00,CLR,,0.00,WeatherDisplay:10.37,2013-05-29 16:52:00,
2013-05-29 12:57:00,81.1,62.9,29.58,SSW,202,0.0,0.0,54,0.00,CLR,,0.00,WeatherDisplay:10.37,2013-05-29 16:57:00,
2013-05-29 13:02:00,81.4,62.1,29.58,WSW,244,6.9,6.9,52,0.00,CLR,,0.00,WeatherDisplay:10.37,2013-05-29 17:02:00,
2013-05-29 13:07:00,81.1,61.3,29.58,SW,222,8.1,8.1,51,0.00,CLR,,0.00,WeatherDisplay:10.37,2013-05-29 17:07:00,
2013-05-29 13:12:00,81.4,62.6,29.57,WSW,251,5.8,5.8,53,0.00,CLR,,0.00,WeatherDisplay:10.37,2013-05-29 17:12:00,
2013-05-29 13:17:00,81.6,61.7,29.57,SW,226,2.3,0.0,51,0.00,CLR,,0.00,WeatherDisplay:10.37,2013-05-29 17:17:00,
2013-05-29 13:22:00,82.0,62.6,29.57,WNW,285,11.5,11.5,52,0.00,CLR,,0.00,WeatherDisplay:10.37,2013-05-29 17:22:00,
2013-05-29 13:27:00,81.6,62.3,29.56,SW,229,5.0,5.0,52,0.00,CLR,,0.00,WeatherDisplay:10.37,2013-05-29 17:27:00,
2013-05-29 13:32:00,81.8,61.9,29.56,East,96,3.5,3.5,51,0.00,CLR,,0.00,WeatherDisplay:10.37,2013-05-29 17:32:00,
2013-05-29 13:37:00,82.4,61.9,29.56,SW,224,1.1,1.1,50,0.00,CLR,,0.00,WeatherDisplay:10.37,2013-05-29 17:37:00,
2013-05-29 13:42:00,82.4,62.5,29.56,SW,230,3.5,3.5,51,0.00,CLR,,0.00,WeatherDisplay:10.37,2013-05-29 17:42:00,
2013-05-29 13:47:00,83.0,61.9,29.56,SSW,209,2.3,2.3,49,0.00,CLR,,0.00,WeatherDisplay:10.37,2013-05-29 17:47:00,
2013-05-29 13:52:00,83.4,61.1,29.56,WSW,240,11.0,11.0,47,0.00,CLR,,0.00,WeatherDisplay:10.37,2013-05-29 17:52:00,
2013-05-29 13:57:00,83.0,60.7,29.55,WSW,247,0.0,1.2,47,0.00,CLR,,0.00,WeatherDisplay:10.37,2013-05-29 17:57:00,
2013-05-29 14:02:00,82.8,59.9,29.55,SW,236,11.5,11.5,46,0.00,CLR,,0.00,WeatherDisplay:10.37,2013-05-29 18:02:00,
2013-05-29 14:07:00,82.8,61.7,29.55,SW,229,5.8,5.8,49,0.00,CLR,,0.00,WeatherDisplay:10.37,2013-05-29 18:07:00,
2013-05-29 14:12:00,83.0,60.7,29.55,West,268,12.7,12.7,47,0.00,CLR,,0.00,WeatherDisplay:10.37,2013-05-29 18:12:00,
2013-05-29 14:17:00,82.6,60.3,29.55,WSW,246,3.5,3.5,47,0.00,CLR,,0.00,WeatherDisplay:10.37,2013-05-29 18:17:00,
2013-05-29 14:22:00,83.0,60.1,29.55,NW,325,6.9,6.9,46,0.00,CLR,,0.00,WeatherDisplay:10.37,2013-05-29 18:22:00,
2013-05-29 14:27:00,83.0,60.7,29.55,West,268,4.6,4.6,47,0.00,CLR,,0.00,WeatherDisplay:10.37,2013-05-29 18:27:00,
2013-05-29 14:32:00,83.2,60.9,29.55,WSW,247,4.6,0.0,47,0.00,CLR,,0.00,WeatherDisplay:10.37,2013-05-29 18:32:00,
2013-05-29 14:37:00,83.2,61.5,29.55,WSW,240,8.1,8.1,48,0.00,CLR,,0.00,WeatherDisplay:10.37,2013-05-29 18:37:00,
2013-05-29 14:42:00,82.4,59.5,29.55,WSW,240,8.1,8.1,46,0.00,CLR,,0.00,WeatherDisplay:10.37,2013-05-29 18:42:00,
2013-05-29 14:47:00,83.0,61.9,29.55,SW,216,2.3,0.0,49,0.00,CLR,,0.00,WeatherDisplay:10.37,2013-05-29 18:47:00,
2013-05-29 14:52:00,83.4,60.4,29.55,WSW,237,8.1,8.1,46,0.00,CLR,,0.00,WeatherDisplay:10.37,2013-05-29 18:52:00,
2013-05-29 14:57:00,83.6,61.2,29.54,NNW,346,8.1,8.1,47,0.00,CLR,,0.00,WeatherDisplay:10.37,2013-05-29 18:57:00,
2013-05-29 15:02:00,84.0,61.0,29.54,SSW,200,6.9,6.9,46,0.00,CLR,,0.00,WeatherDisplay:10.37,2013-05-29 19:02:00,
2013-05-29 15:07:00,84.1,62.3,29.54,WSW,258,6.9,6.9,48,0.00,CLR,,0.00,WeatherDisplay:10.37,2013-05-29 19:07:00,
2013-05-29 15:12:00,84.0,62.8,29.54,SW,232,0.0,0.6,49,0.00,CLR,,0.00,WeatherDisplay:10.37,2013-05-29 19:12:00,
2013-05-29 15:17:00,83.6,61.8,29.54,South,171,11.5,11.5,48,0.00,CLR,,0.00,WeatherDisplay:10.37,2013-05-29 19:17:00,
2013-05-29 15:22:00,83.6,63.0,29.54,WSW,246,1.1,0.0,50,0.00,CLR,,0.00,WeatherDisplay:10.37,2013-05-29 19:22:00,
2013-05-29 15:27:00,83.4,62.2,29.54,SSW,212,5.8,5.8,49,0.00,CLR,,0.00,WeatherDisplay:10.37,2013-05-29 19:27:00,
2013-05-29 15:32:00,83.8,63.7,29.54,SW,224,0.0,0.0,51,0.00,CLR,,0.00,WeatherDisplay:10.37,2013-05-29 19:32:00,
2013-05-29 15:37:00,84.0,63.9,29.54,SW,226,2.3,0.0,51,0.00,CLR,,0.00,WeatherDisplay:10.37,2013-05-29 19:37:00,
2013-05-29 15:42:00,84.0,62.8,29.54,WSW,237,2.3,2.3,49,0.00,CLR,,0.00,WeatherDisplay:10.37,2013-05-29 19:42:00,
2013-05-29 15:47:00,84.0,61.6,29.54,WSW,241,10.4,10.4,47,0.00,CLR,,0.00,WeatherDisplay:10.37,2013-05-29 19:47:00,
2013-05-29 15:52:00,83.8,62.6,29.54,WSW,241,5.0,5.0,49,0.00,CLR,,0.00,WeatherDisplay:10.37,2013-05-29 19:52:00,
2013-05-29 15:57:00,83.4,61.7,29.54,West,261,9.2,9.2,48,0.00,CLR,,0.00,WeatherDisplay:10.37,2013-05-29 19:57:00,
2013-05-29 16:02:00,83.4,62.2,29.54,WSW,244,8.1,8.1,49,0.00,CLR,,0.00,WeatherDisplay:10.37,2013-05-29 20:02:00,
2013-05-29 16:07:00,83.4,62.2,29.54,West,264,11.5,11.5,49,0.00,CLR,,0.00,WeatherDisplay:10.37,2013-05-29 20:07:00,
2013-05-29 16:12:00,83.4,62.2,29.53,WSW,248,11.5,11.5,49,0.00,CLR,,0.00,WeatherDisplay:10.37,2013-05-29 20:12:00,
2013-05-29 16:17:00,83.4,61.7,29.53,SW,222,8.1,8.1,48,0.00,CLR,,0.00,WeatherDisplay:10.37,2013-05-29 20:17:00,
2013-05-29 16:22:00,83.4,62.2,29.53,WSW,244,5.8,5.8,49,0.00,CLR,,0.00,WeatherDisplay:10.37,2013-05-29 20:22:00,
2013-05-29 16:27:00,83.4,62.2,29.53,SW,234,5.8,5.8,49,0.00,CLR,,0.00,WeatherDisplay:10.37,2013-05-29 20:27:00,
2013-05-29 16:32:00,84.1,62.3,29.53,SW,236,3.5,3.5,48,0.00,CLR,,0.00,WeatherDisplay:10.37,2013-05-29 20:32:00,
2013-05-29 16:37:00,84.1,61.7,29.53,WSW,246,6.9,7.5,47,0.00,CLR,,0.00,WeatherDisplay:10.37,2013-05-29 20:37:00,
2013-05-29 16:42:00,84.0,62.8,29.53,WSW,247,1.1,1.1,49,0.00,CLR,,0.00,WeatherDisplay:10.37,2013-05-29 20:42:00,
2013-05-29 16:47:00,84.0,62.8,29.53,WNW,282,3.5,3.5,49,0.00,CLR,,0.00,WeatherDisplay:10.37,2013-05-29 20:47:00,
2013-05-29 16:52:00,83.4,63.4,29.53,WSW,253,8.1,8.1,51,0.00,CLR,,0.00,WeatherDisplay:10.37,2013-05-29 20:52:00,
2013-05-29 16:57:00,83.2,64.3,29.53,WSW,237,1.1,1.1,53,0.00,CLR,,0.00,WeatherDisplay:10.37,2013-05-29 20:57:00,
2013-05-29 17:02:00,83.4,63.4,29.53,WSW,247,2.3,4.6,51,0.00,CLR,,0.00,WeatherDisplay:10.37,2013-05-29 21:02:00,
2013-05-29 17:07:00,83.2,63.7,29.53,WSW,250,4.6,4.6,52,0.00,CLR,,0.00,WeatherDisplay:10.37,2013-05-29 21:07:00,
2013-05-29 17:12:00,82.6,63.2,29.53,SW,226,3.5,3.7,52,0.00,CLR,,0.00,WeatherDisplay:10.37,2013-05-29 21:12:00,
2013-05-29 17:17:00,82.4,62.5,29.53,WSW,258,5.8,5.8,51,0.00,CLR,,0.00,WeatherDisplay:10.37,2013-05-29 21:17:00,
2013-05-29 17:22:00,82.6,62.6,29.53,SSW,198,3.5,3.5,51,0.00,CLR,,0.00,WeatherDisplay:10.37,2013-05-29 21:22:00,
2013-05-29 17:27:00,82.8,63.9,29.53,SSW,199,0.0,0.0,53,0.00,CLR,,0.00,WeatherDisplay:10.37,2013-05-29 21:27:00,
2013-05-29 17:32:00,83.2,63.7,29.53,WSW,239,3.5,3.5,52,0.00,CLR,,0.00,WeatherDisplay:10.37,2013-05-29 21:32:00,
2013-05-29 17:38:00,83.2,62.6,29.53,WSW,240,5.8,5.8,50,0.00,CLR,,0.00,WeatherDisplay:10.37,2013-05-29 21:38:00,
2013-05-29 17:43:00,82.4,62.5,29.53,SW,227,4.6,4.6,51,0.00,CLR,,0.00,WeatherDisplay:10.37,2013-05-29 21:43:00,
2013-05-29 17:48:00,82.2,62.8,29.53,SW,230,2.3,0.0,52,0.00,CLR,,0.00,WeatherDisplay:10.37,2013-05-29 21:48:00,
2013-05-29 17:53:00,82.6,62.6,29.53,SSW,209,4.6,4.6,51,0.00,CLR,,0.00,WeatherDisplay:10.37,2013-05-29 21:53:00,
2013-05-29 17:58:00,82.8,62.3,29.52,West,265,6.9,6.9,50,0.00,CLR,,0.00,WeatherDisplay:10.37,2013-05-29 21:58:00,
2013-05-29 18:03:00,82.6,62.1,29.52,SW,236,3.5,3.5,50,0.00,CLR,,0.00,WeatherDisplay:10.37,2013-05-29 22:03:00,
2013-05-29 18:08:00,82.4,62.5,29.52,WSW,253,5.8,5.8,51,0.00,CLR,,0.00,WeatherDisplay:10.37,2013-05-29 22:08:00,
2013-05-29 18:13:00,82.4,61.9,29.52,SW,232,3.5,3.5,50,0.00,CLR,,0.00,WeatherDisplay:10.37,2013-05-29 22:13:00,
2013-05-29 18:18:00,82.6,63.2,29.52,SW,216,3.5,3.5,52,0.00,CLR,,0.00,WeatherDisplay:10.37,2013-05-29 22:18:00,
2013-05-29 18:23:00,82.6,62.6,29.52,SSE,161,2.0,2.0,51,0.00,CLR,,0.00,WeatherDisplay:10.37,2013-05-29 22:23:00,
2013-05-29 18:28:00,82.4,62.5,29.52,SW,236,3.5,3.5,51,0.00,CLR,,0.00,WeatherDisplay:10.37,2013-05-29 22:28:00,
2013-05-29 18:33:00,82.4,63.0,29.52,WSW,239,0.0,0.5,52,0.00,CLR,,0.00,WeatherDisplay:10.37,2013-05-29 22:33:00,
2013-05-29 18:38:00,82.4,62.5,29.52,South,169,2.3,2.3,51,0.00,CLR,,0.00,WeatherDisplay:10.37,2013-05-29 22:38:00,
2013-05-29 18:43:00,82.4,63.0,29.52,WSW,251,5.8,5.8,52,0.00,CLR,,0.00,WeatherDisplay:10.37,2013-05-29 22:43:00,
2013-05-29 18:48:00,82.0,62.6,29.52,SW,229,1.1,1.1,52,0.00,CLR,,0.00,WeatherDisplay:10.37,2013-05-29 22:48:00,
2013-05-29 18:53:00,82.0,62.6,29.52,WSW,254,4.6,4.6,52,0.00,CLR,,0.00,WeatherDisplay:10.37,2013-05-29 22:53:00,
2013-05-29 18:58:00,81.8,61.9,29.52,WSW,239,1.1,0.0,51,0.00,CLR,,0.00,WeatherDisplay:10.37,2013-05-29 22:58:00,
2013-05-29 19:03:00,81.4,62.1,29.52,WSW,241,4.6,4.6,52,0.00,CLR,,0.00,WeatherDisplay:10.37,2013-05-29 23:03:00,
2013-05-29 19:08:00,81.4,62.6,29.52,WSW,240,0.0,0.0,53,0.00,CLR,,0.00,WeatherDisplay:10.37,2013-05-29 23:08:00,
2013-05-29 19:13:00,81.2,62.4,29.52,WSW,239,2.3,2.3,53,0.00,CLR,,0.00,WeatherDisplay:10.37,2013-05-29 23:13:00,
2013-05-29 19:18:00,81.1,62.3,29.52,SSW,202,0.0,0.0,53,0.00,CLR,,0.00,WeatherDisplay:10.37,2013-05-29 23:18:00,
2013-05-29 19:23:00,80.9,62.7,29.52,SSW,212,1.1,1.1,54,0.00,CLR,,0.00,WeatherDisplay:10.37,2013-05-29 23:23:00,
2013-05-29 19:28:00,80.7,63.0,29.52,SSW,212,0.0,0.0,55,0.00,CLR,,0.00,WeatherDisplay:10.37,2013-05-29 23:28:00,
2013-05-29 19:33:00,80.7,63.0,29.52,SSW,213,0.0,0.0,55,0.00,CLR,,0.00,WeatherDisplay:10.37,2013-05-29 23:33:00,
2013-05-29 19:38:00,80.3,63.2,29.52,SSW,213,0.0,0.0,56,0.00,CLR,,0.00,WeatherDisplay:10.37,2013-05-29 23:38:00,
2013-05-29 19:43:00,80.1,63.5,29.52,SSW,213,0.0,0.0,57,0.00,CLR,,0.00,WeatherDisplay:10.37,2013-05-29 23:43:00,
2013-05-29 19:48:00,80.1,63.5,29.52,SSW,213,0.0,0.0,57,0.00,CLR,,0.00,WeatherDisplay:10.37,2013-05-29 23:48:00,
2013-05-29 19:53:00,80.1,63.5,29.52,SSW,213,0.0,0.0,57,0.00,CLR,,0.00,WeatherDisplay:10.37,2013-05-29 23:53:00,
2013-05-29 19:58:00,78.6,62.1,29.51,SSW,213,0.0,0.0,57,0.00,CLR,,0.00,WeatherDisplay:10.37,2013-05-29 23:58:00,
2013-05-29 20:03:00,78.1,63.6,29.51,SSW,213,0.0,0.0,61,0.00,CLR,,0.00,WeatherDisplay:10.37,2013-05-30 00:03:00,
2013-05-29 20:08:00,77.7,63.2,29.51,SSW,213,0.0,0.0,61,0.00,CLR,,0.00,WeatherDisplay:10.37,2013-05-30 00:08:00,
2013-05-29 20:13:00,77.2,63.6,29.51,SSW,205,0.0,0.0,63,0.00,CLR,,0.00,WeatherDisplay:10.37,2013-05-30 00:13:00,
2013-05-29 20:18:00,76.7,63.6,29.51,SSE,148,0.0,0.0,64,0.00,CLR,,0.00,WeatherDisplay:10.37,2013-05-30 00:18:00,
2013-05-29 20:23:00,76.3,63.2,29.51,SSE,148,0.0,0.0,64,0.00,CLR,,0.00,WeatherDisplay:10.37,2013-05-30 00:23:00,
2013-05-29 20:28:00,76.0,62.9,29.51,SSE,148,0.0,0.0,64,0.00,CLR,,0.00,WeatherDisplay:10.37,2013-05-30 00:28:00,
2013-05-29 20:33:00,75.4,63.2,29.51,SSE,148,0.0,0.0,66,0.00,CLR,,0.00,WeatherDisplay:10.37,2013-05-30 00:33:00,
2013-05-29 20:38:00,75.3,63.2,29.51,SSE,148,0.0,0.0,66,0.00,CLR,,0.00,WeatherDisplay:10.37,2013-05-30 00:38:00,
2013-05-29 20:43:00,74.9,62.8,29.52,SSE,148,0.0,0.0,66,0.00,CLR,,0.00,WeatherDisplay:10.37,2013-05-30 00:43:00,
2013-05-29 20:48:00,74.7,63.0,29.52,SSE,148,0.0,0.0,67,0.00,CLR,,0.00,WeatherDisplay:10.37,2013-05-30 00:48:00,
2013-05-29 20:53:00,74.4,63.1,29.52,SSE,148,0.0,0.0,68,0.00,CLR,,0.00,WeatherDisplay:10.37,2013-05-30 00:53:00,
2013-05-29 20:58:00,73.9,62.7,29.52,SSE,148,0.0,0.0,68,0.00,CLR,,0.00,WeatherDisplay:10.37,2013-05-30 00:58:00,
2013-05-29 21:03:00,73.5,62.7,29.52,SSE,148,0.0,0.0,69,0.00,CLR,,0.00,WeatherDisplay:10.37,2013-05-30 01:03:00,
2013-05-29 21:08:00,73.3,62.5,29.52,SSE,148,0.0,0.0,69,0.00,CLR,,0.00,WeatherDisplay:10.37,2013-05-30 01:08:00,
2013-05-29 21:13:00,73.2,62.8,29.52,SSE,148,0.0,0.0,70,0.00,CLR,,0.00,WeatherDisplay:10.37,2013-05-30 01:13:00,
2013-05-29 21:18:00,73.0,62.6,29.52,SSE,148,0.0,0.0,70,0.00,CLR,,0.00,WeatherDisplay:10.37,2013-05-30 01:18:00,
2013-05-29 21:23:00,72.8,62.8,29.52,SSE,148,0.0,0.0,71,0.00,CLR,,0.00,WeatherDisplay:10.37,2013-05-30 01:23:00,
2013-05-29 21:28:00,72.5,62.6,29.52,SSE,148,0.0,0.0,71,0.00,CLR,,0.00,WeatherDisplay:10.37,2013-05-30 01:28:00,
2013-05-29 21:33:00,72.3,62.8,29.52,SSE,148,0.0,0.0,72,0.00,CLR,,0.00,WeatherDisplay:10.37,2013-05-30 01:33:00,
2013-05-29 21:38:00,72.3,62.4,29.52,SSE,148,0.0,0.0,71,0.00,CLR,,0.00,WeatherDisplay:10.37,2013-05-30 01:38:00,
2013-05-29 21:43:00,72.3,62.4,29.53,SSE,148,0.0,0.0,71,0.00,CLR,,0.00,WeatherDisplay:10.37,2013-05-30 01:43:00,
2013-05-29 21:48:00,72.3,62.4,29.53,North,0,0.0,0.0,71,0.00,CLR,,0.00,WeatherDisplay:10.37,2013-05-30 01:48:00,
2013-05-29 21:53:00,72.3,62.4,29.53,North,0,0.0,0.0,71,0.00,CLR,,0.00,WeatherDisplay:10.37,2013-05-30 01:53:00,
2013-05-29 21:58:00,72.3,62.4,29.53,North,0,0.0,0.0,71,0.00,CLR,,0.00,WeatherDisplay:10.37,2013-05-30 01:58:00,
2013-05-29 22:03:00,71.5,61.6,29.53,SSE,148,0.0,0.0,71,0.00,CLR,,0.00,WeatherDisplay:10.37,2013-05-30 02:03:00,
2013-05-29 22:08:00,71.5,61.6,29.53,SSE,148,0.0,0.0,71,0.00,CLR,,0.00,WeatherDisplay:10.37,2013-05-30 02:08:00,
2013-05-29 22:13:00,71.5,61.6,29.53,SSE,148,0.0,0.0,71,0.00,CLR,,0.00,WeatherDisplay:10.37,2013-05-30 02:13:00,
2013-05-29 22:18:00,71.3,61.4,29.53,SSE,150,0.0,0.0,71,0.00,CLR,,0.00,WeatherDisplay:10.37,2013-05-30 02:18:00,
2013-05-29 22:23:00,71.3,61.4,29.53,SSE,150,0.0,0.0,71,0.00,CLR,,0.00,WeatherDisplay:10.37,2013-05-30 02:23:00,
2013-05-29 22:28:00,71.5,62.4,29.54,SSW,192,1.1,0.0,73,0.00,CLR,,0.00,WeatherDisplay:10.37,2013-05-30 02:28:00,
2013-05-29 22:33:00,71.5,62.4,29.54,SSW,192,0.0,0.0,73,0.00,CLR,,0.00,WeatherDisplay:10.37,2013-05-30 02:33:00,
2013-05-29 22:38:00,71.5,62.8,29.54,SSW,192,0.0,0.0,74,0.00,CLR,,0.00,WeatherDisplay:10.37,2013-05-30 02:38:00,
2013-05-29 22:43:00,71.5,62.8,29.55,SSW,192,0.0,0.0,74,0.00,CLR,,0.00,WeatherDisplay:10.37,2013-05-30 02:43:00,
2013-05-29 22:48:00,71.5,62.8,29.55,SSW,192,0.0,0.0,74,0.00,CLR,,0.00,WeatherDisplay:10.37,2013-05-30 02:48:00,
2013-05-29 22:53:00,71.5,62.8,29.55,North,0,0.0,0.0,74,0.00,CLR,,0.00,WeatherDisplay:10.37,2013-05-30 02:53:00,
2013-05-29 22:58:00,71.5,62.8,29.55,North,0,0.0,0.0,74,0.00,CLR,,0.00,WeatherDisplay:10.37,2013-05-30 02:58:00,
2013-05-29 23:03:00,71.5,62.8,29.55,North,0,0.0,0.0,74,0.00,CLR,,0.00,WeatherDisplay:10.37,2013-05-30 03:03:00,
2013-05-29 23:08:00,71.5,62.8,29.55,North,0,0.0,0.0,74,0.00,CLR,,0.00,WeatherDisplay:10.37,2013-05-30 03:08:00,
2013-05-29 23:13:00,71.5,62.8,29.55,North,0,0.0,0.0,74,0.00,CLR,,0.00,WeatherDisplay:10.37,2013-05-30 03:13:00,
2013-05-29 23:18:00,71.5,62.8,29.55,North,0,0.0,0.0,74,0.00,CLR,,0.00,WeatherDisplay:10.37,2013-05-30 03:18:00,
2013-05-29 23:23:00,71.5,62.8,29.55,North,0,0.0,0.0,74,0.00,CLR,,0.00,WeatherDisplay:10.37,2013-05-30 03:23:00,
2013-05-29 23:28:00,71.5,62.8,29.56,North,0,0.0,0.0,74,0.00,CLR,,0.00,WeatherDisplay:10.37,2013-05-30 03:28:00,
2013-05-29 23:33:00,71.5,62.8,29.56,North,0,0.0,0.0,74,0.00,CLR,,0.00,WeatherDisplay:10.37,2013-05-30 03:33:00,
2013-05-29 23:38:00,71.5,62.8,29.56,North,0,0.0,0.0,74,0.00,CLR,,0.00,WeatherDisplay:10.37,2013-05-30 03:38:00,
2013-05-29 23:43:00,71.8,62.7,29.56,WSW,239,6.9,6.9,73,0.00,CLR,,0.00,WeatherDisplay:10.37,2013-05-30 03:43:00,
2013-05-29 23:48:00,71.8,62.7,29.56,SW,222,5.8,5.8,73,0.00,CLR,,0.00,WeatherDisplay:10.37,2013-05-30 03:48:00,
2013-05-29 23:53:00,71.6,62.5,29.56,SW,232,0.0,0.0,73,0.00,CLR,,0.00,WeatherDisplay:10.37,2013-05-30 03:53:00,
2013-05-29 23:58:00,71.5,62.4,29.56,SW,229,4.6,4.6,73,0.00,CLR,,0.00,WeatherDisplay:10.37,2013-05-30 03:58:00,